This is the latest recevied weather packets stored in our database for station/object NU3S-7. If no packets are shown the sender has not sent any weather packets the latest 10 day(s).
| Time | Temp. | Humidity | Pressure | Rain* | Wind** | Luminosity | Snow |
|---|---|---|---|---|---|---|---|
| 1777836233 | 14.44° C | 57% | 1015.1 hPa | 0 mm | - | - | - |
| 1777835627 | 13.89° C | 58% | 1015.2 hPa | 0 mm | - | - | - |
| 1777835035 | 14.44° C | 58% | 1015.4 hPa | 0 mm | - | - | - |
| 1777834425 | 13.33° C | 56% | 1015.5 hPa | 0 mm | - | - | - |
| 1777833822 | 13.89° C | 56% | 1015.6 hPa | 0 mm | - | - | - |
| 1777833290 | 13.33° C | 59% | 1015.5 hPa | 0 mm | - | - | - |
| 1777832637 | 13.89° C | 60% | 1015.8 hPa | 0 mm | - | - | - |
| 1777832025 | 14.44° C | 60% | 1015.9 hPa | 0 mm | - | - | - |
| 1777831423 | 13.89° C | 61% | 1016 hPa | 0 mm | - | - | - |
| 1777830905 | 13.33° C | 60% | 1016.1 hPa | 0 mm | - | - | - |
| 1777830306 | 13.89° C | 60% | 1016.1 hPa | 0 mm | - | - | - |
| 1777829629 | 12.78° C | 60% | 1016.2 hPa | 0 mm | - | - | - |
| 1777827909 | 11.67° C | 60% | 1016.6 hPa | 0 mm | - | - | - |
| 1777827309 | 11.67° C | 61% | 1016.5 hPa | 0 mm | - | - | - |
| 1777824307 | 11.11° C | 63% | 1017.1 hPa | 0 mm | - | - | - |
| 1777823105 | 10.56° C | 63% | 1017.4 hPa | 0 mm | - | - | - |
| 1777821909 | 10.56° C | 66% | 1017.4 hPa | 0 mm | - | - | - |
| 1777820073 | 9.44° C | 68% | 1017.6 hPa | 0 mm | - | - | - |
| 1777819472 | 9.44° C | 71% | 1017.6 hPa | 0 mm | - | - | - |
| 1777818909 | 10° C | 74% | 1017.6 hPa | 0 mm | - | - | - |
| 1777818215 | 8.89° C | 74% | 1017.7 hPa | 0 mm | - | - | - |
| 1777817009 | 8.33° C | 79% | 1017.9 hPa | 0 mm | - | - | - |
| 1777816431 | 8.33° C | 80% | 1018 hPa | 0 mm | - | - | - |
| 1777815209 | 7.78° C | 82% | 1018.1 hPa | 0 mm | - | - | - |
| 1777814612 | 7.22° C | 85% | 1018.1 hPa | 0 mm | - | - | - |
* Rain since midnight (hover to see other rain measurements)
** Current wind speed in m/s (hover to see current wind gust speed)